EW8564 Weather Reports


time (UTC)temp
F
wind
direction
speed
knots
gust
knots
rain 1hr
in
rain 24hr
in
rain mn
in
humidity
%
barometer
mb
20260503020334 73 237 0.0 0.0 0.00 0.00 0.00 32 1006.1
20260503015332 75 240 0.0 0.0 0.00 0.00 0.00 27 1006.1
20260503014330 75 234 0.0 0.0 0.00 0.00 0.00 27 1006.1
20260503013328 75 232 0.0 0.0 0.00 0.00 0.00 26 1006.1
20260503012327 74 232 0.0 0.0 0.00 0.00 0.00 23 1006.1
20260503011326 74 248 0.0 1.7 0.00 0.00 0.00 22 1006.1
20260503010325 75 248 0.0 3.5 0.00 0.00 0.00 21 1006.4
20260503005323 75 250 0.0 3.5 0.00 0.00 0.00 21 1006.4
20260503004323 75 294 0.9 5.2 0.00 0.00 0.00 20 1006.4
20260503003322 75 264 0.9 5.2 0.00 0.00 0.00 18 1006.4
20260503002321 76 287 1.7 7.0 0.00 0.00 0.00 18 1006.4
20260503001320 75 307 0.9 7.0 0.00 0.00 0.00 18 1006.4
20260503000320 75 282 0.9 6.1 0.00 0.00 0.00 18 1006.4
20260502235318 75 309 3.5 13.0 0.00 0.00 0.00 17 1006.8
20260502234317 75 310 0.9 13.0 0.00 0.00 0.00 19 1006.8
20260502233316 76 295 2.6 7.0 0.00 0.00 0.00 18 1006.8
20260502232315 76 294 1.7 7.8 0.00 0.00 0.00 19 1006.8
20260502231315 76 298 3.5 7.8 0.00 0.00 0.00 18 1007.1
20260502230314 76 298 0.0 6.1 0.00 0.00 0.00 18 1007.1
20260502225313 76 338 0.0 4.3 0.00 0.00 0.00 18 1007.5
20260502224310 75 75 0.0 5.2 0.00 0.00 0.00 20 1007.5
20260502223238 75 339 0.9 5.2 0.00 0.00 0.00 19 1007.5
20260502222237 75 325 0.9 11.3 0.00 0.00 0.00 19 1007.8
20260502221236 74 316 1.7 11.3 0.00 0.00 0.00 20 1007.8
20260502220203 75 304 3.5 6.1 0.00 0.00 0.00 18 1008.1
20260502215201 74 315 0.0 12.2 0.00 0.00 0.00 21 1008.1
20260502214130 74 319 0.9 12.2 0.00 0.00 0.00 18 1008.5
20260502213128 74 327 1.7 7.8 0.00 0.00 0.00 19 1008.5
20260502212128 74 328 1.7 11.3 0.00 0.00 0.00 19 1008.5
20260502211127 74 313 3.5 11.3 0.00 0.00 0.00 19 1008.5
20260502210126 74 307 3.5 11.3 0.00 0.00 0.00 19 1008.5
20260502205124 73 308 0.9 12.2 0.00 0.00 0.00 18 1008.8
20260502204122 73 324 0.9 12.2 0.00 0.00 0.00 19 1008.8
20260502203121 73 316 1.7 13.0 0.00 0.00 0.00 19 1009.1
20260502202120 73 324 3.5 13.0 0.00 0.00 0.00 17 1009.1
20260502201120 72 319 1.7 13.0 0.00 0.00 0.00 20 1009.1
20260502200047 72 341 2.6 13.0 0.00 0.00 0.00 22 1009.1
20260502195046 72 312 5.2 12.2 0.00 0.00 0.00 20 1009.1
20260502194045 71 312 3.5 10.4 0.00 0.00 0.00 23 1009.5
20260502193044 71 317 1.7 11.3 0.00 0.00 0.00 28 1009.8
20260502192043 70 316 0.9 11.3 0.00 0.00 0.00 30 1009.8
20260502191010 69 316 0.9 10.4 0.00 0.00 0.00 33 1009.8
20260502185938 68 299 1.7 8.7 0.00 0.00 0.00 34 1010.2
20260502184937 67 304 1.7 8.7 0.00 0.00 0.00 35 1010.2
20260502183936 66 299 2.6 10.4 0.00 0.00 0.00 35 1010.5
20260502182934 65 283 3.5 10.4 0.00 0.00 0.00 38 1010.8
20260502181933 64 322 1.7 11.3 0.00 0.00 0.00 39 1010.8
20260502180932 63 303 1.7 11.3 0.00 0.00 0.00 41 1011.2
20260502163747 58 337 0.0 1.7 0.00 0.00 0.00 46 1012.2
20260502162746 57 101 0.0 0.0 0.00 0.00 0.00 49 1012.2
20260502161745 56 120 0.0 0.0 0.00 0.00 0.00 50 1012.5
20260502160744 55 360 0.0 0.0 0.00 0.00 0.00 52 1012.5
20260502151703 48 296 0.0 0.9 0.00 0.01 0.00 67 1013.2
20260502150703 48 282 0.0 0.9 0.00 0.01 0.00 70 1013.2
20260502130339 41 175 0.0 1.7 0.00 0.01 0.00 81 1013.2
20260502123233 39 152 0.0 0.0 0.00 0.01 0.00 83 1013.2
20260502122232 39 152 0.0 0.0 0.00 0.01 0.00 83 1013.2
20260502121231 39 152 0.0 0.0 0.00 0.01 0.00 83 1013.2
20260502120159 39 152 0.0 0.0 0.00 0.01 0.00 83 1013.2
20260502115127 39 152 0.0 0.0 0.00 0.01 0.00 83 1013.2
20260502114126 39 152 0.0 0.0 0.00 0.01 0.00 82 1013.2
20260502113125 40 152 0.0 0.0 0.00 0.01 0.00 82 1013.2
20260502112124 40 152 0.0 0.0 0.00 0.01 0.00 81 1012.9
20260502111123 40 152 0.0 0.0 0.00 0.01 0.00 81 1013.2
20260502110050 40 152 0.0 0.0 0.00 0.01 0.00 80 1012.9
20260502105049 40 152 0.0 0.0 0.00 0.01 0.00 80 1012.9
20260502104049 40 152 0.0 0.0 0.00 0.01 0.00 80 1012.9
20260502103048 41 152 0.0 0.0 0.00 0.01 0.00 79 1012.9
20260502102047 41 152 0.0 0.0 0.00 0.01 0.00 79 1012.5
20260502101015 41 152 0.0 0.0 0.00 0.01 0.00 78 1012.5
20260502090905 43 152 0.0 0.0 0.00 0.01 0.00 75 1012.2
20260502070543 47 153 0.0 0.0 0.00 0.01 0.00 67 1011.5
20260502065542 48 152 0.0 0.0 0.00 0.01 0.00 67 1011.5
20260502064510 48 152 0.0 0.0 0.00 0.01 0.00 67 1011.5
20260502063509 48 152 0.0 0.0 0.00 0.01 0.00 67 1011.2
20260502062508 49 152 0.0 0.0 0.00 0.01 0.00 66 1011.2
20260502061506 49 152 0.0 0.0 0.00 0.01 0.00 66 1011.2
20260502060504 49 152 0.0 0.0 0.00 0.01 0.00 65 1011.2
20260502055504 50 152 0.0 0.0 0.00 0.01 0.01 66 1011.2
20260502054503 50 152 0.0 0.0 0.00 0.01 0.01 63 1010.8
20260502053502 51 152 0.0 0.0 0.00 0.01 0.01 62 1010.8
20260502052429 51 152 0.0 0.0 0.00 0.01 0.01 61 1010.8
20260502051427 51 152 0.0 0.0 0.00 0.01 0.01 61 1010.8
20260502050427 51 152 0.0 0.0 0.00 0.01 0.01 61 1010.8
20260502045426 52 152 0.0 0.0 0.00 0.01 0.01 62 1010.5
20260502044425 52 153 0.0 0.0 0.00 0.01 0.01 61 1010.5
20260502043424 53 153 0.0 0.0 0.00 0.01 0.01 61 1010.5
20260502042423 54 153 0.0 0.0 0.00 0.01 0.01 59 1010.5
20260502041423 54 153 0.0 0.0 0.00 0.01 0.01 57 1010.5
20260502040422 55 152 0.0 0.0 0.00 0.01 0.01 57 1010.2
20260502035420 55 137 0.0 0.0 0.00 0.01 0.01 56 1010.2
20260502034419 57 125 0.0 0.0 0.00 0.01 0.01 55 1010.2
20260502033418 58 125 0.0 0.0 0.00 0.01 0.01 53 1009.8
20260502032418 58 125 0.0 0.0 0.00 0.01 0.01 50 1009.8
20260502031416 59 132 0.0 0.0 0.00 0.01 0.01 50 1009.5
20260502030312 61 132 0.0 0.0 0.00 0.01 0.01 49 1009.5
20260502025312 62 132 0.0 0.0 0.00 0.01 0.01 47 1009.1
20260502024311 63 132 0.0 0.0 0.00 0.01 0.01 44 1009.1
20260502023309 64 133 0.0 0.0 0.00 0.01 0.01 44 1009.1
20260502022308 65 133 0.0 0.0 0.00 0.01 0.01 42 1009.1
20260502021307 66 133 0.0 0.0 0.00 0.01 0.01 36 1009.1